Weather reports worldwide

Advertisment
Civitavecchia, Italy (16214): temperature & dewpoint: 18.08.2019 07:00:00 - 24.08.2019 07:00:00 (CEST)Civitavecchia, Italy (16214): wind speed: 18.08.2019 07:00:00 - 24.08.2019 07:00:00 (CEST)Civitavecchia, Italy (16214): wind direction: 18.08.2019 07:00:00 - 24.08.2019 07:00:00 (CEST)Civitavecchia, Italy (16214): reduced air pressure: 18.08.2019 07:00:00 - 24.08.2019 07:00:00 (CEST)Civitavecchia, Italy (16214): visibility: 18.08.2019 07:00:00 - 24.08.2019 07:00:00 (CEST)Civitavecchia, Italy (16214): sunshine duration: 18.08.2019 07:00:00 - 24.08.2019 07:00:00 (CEST)
Date & Time tt [°C] td [°C] ff [km/h] ff [kn] dd ppp [hPa] vv [km] sd [min]
24.08.2019 07:00:00 - - - - - - - -
24.08.2019 06:00:00 - - - - - - - -
24.08.2019 05:00:00 26,1 17,4 9 5 E 1016,8 - 0
24.08.2019 04:00:00 - - - - - - - -
24.08.2019 03:00:00 - - - - - - - -
24.08.2019 02:00:00 26,9 17,5 9 5 E 1017,1 - 0
24.08.2019 01:00:00 - - - - - - - -
24.08.2019 00:00:00 - - - - - - - -
23.08.2019 23:00:00 26,9 15,4 4 2 N 1017,2 - 0
23.08.2019 22:00:00 - - - - - - - -
23.08.2019 21:00:00 - - - - - - - -
23.08.2019 20:00:00 27,5 21,3 8 4 N 1017,6 10 0
23.08.2019 19:00:00 - - - - - - - -
23.08.2019 18:00:00 - - - - - - - -
23.08.2019 17:00:00 27,7 22,3 16 9 NW 1017,1 10 60
23.08.2019 16:00:00 - - - - - - - -
23.08.2019 15:00:00 - - - - - - - -
23.08.2019 14:00:00 27,8 23,3 13 7 NW 1018,4 10 24
23.08.2019 13:00:00 - - - - - - - -
23.08.2019 12:00:00 - - - - - - - -
23.08.2019 11:00:00 26,1 23,5 9 5 W 1018,5 10 60
23.08.2019 10:00:00 - - - - - - - -
23.08.2019 09:00:00 - - - - - - - -
23.08.2019 08:00:00 24,6 21,4 4 2 ESE 1018,1 10 24
23.08.2019 07:00:00 - - - - - - - -
23.08.2019 06:00:00 - - - - - - - -
23.08.2019 05:00:00 24,5 22,7 8 4 N 1017,9 - 0
23.08.2019 04:00:00 - - - - - - - -
23.08.2019 03:00:00 - - - - - - - -
23.08.2019 02:00:00 25,3 23,7 11 6 NNW 1018,1 - 0
23.08.2019 01:00:00 - - - - - - - -
23.08.2019 00:00:00 - - - - - - - -
22.08.2019 23:00:00 25,0 22,7 5 3 - 1018,0 - 0
22.08.2019 22:00:00 - - - - - - - -
22.08.2019 21:00:00 - - - - - - - -
22.08.2019 20:00:00 26,0 23,3 18 10 NW 1017,8 10 0
22.08.2019 19:00:00 - - - - - - - -
22.08.2019 18:00:00 - - - - - - - -
22.08.2019 17:00:00 26,2 22,9 13 7 W 1017,5 20 60
22.08.2019 16:00:00 - - - - - - - -
22.08.2019 15:00:00 - - - - - - - -
22.08.2019 14:00:00 25,9 22,5 11 6 W 1018,7 20 60
22.08.2019 13:00:00 - - - - - - - -
22.08.2019 12:00:00 - - - - - - - -
22.08.2019 11:00:00 25,4 22,5 8 4 SSW 1018,8 20 60
22.08.2019 10:00:00 - - - - - - - -
22.08.2019 09:00:00 - - - - - - - -
22.08.2019 08:00:00 23,9 20,3 5 3 ESE 1017,8 20 48
22.08.2019 07:00:00 - - - - - - - -
22.08.2019 06:00:00 - - - - - - - -
22.08.2019 05:00:00 23,4 21,9 8 4 N 1017,4 - 0
22.08.2019 04:00:00 - - - - - - - -
22.08.2019 03:00:00 - - - - - - - -
22.08.2019 02:00:00 24,3 22,5 8 4 NNW 1017,5 - 0
22.08.2019 01:00:00 - - - - - - - -
22.08.2019 00:00:00 - - - - - - - -
21.08.2019 23:00:00 25,3 23,7 11 6 NW 1018,1 - 0
21.08.2019 22:00:00 - - - - - - - -
21.08.2019 21:00:00 - - - - - - - -
21.08.2019 20:00:00 26,0 23,7 8 4 WNW 1017,2 15 55
21.08.2019 19:00:00 - - - - - - - -
21.08.2019 18:00:00 - - - - - - - -
21.08.2019 17:00:00 26,4 23,2 11 6 WNW 1017,2 20 60
21.08.2019 16:00:00 - - - - - - - -
21.08.2019 15:00:00 - - - - - - - -
21.08.2019 14:00:00 26,4 22,4 11 6 WNW 1018,0 20 60
21.08.2019 13:00:00 - - - - - - - -
21.08.2019 12:00:00 - - - - - - - -
21.08.2019 11:00:00 25,4 20,9 4 2 N 1018,7 20 60
21.08.2019 10:00:00 - - - - - - - -
21.08.2019 09:00:00 - - - - - - - -
21.08.2019 08:00:00 23,3 19,8 5 3 ESE 1017,9 20 48
21.08.2019 07:00:00 - - - - - - - -
21.08.2019 06:00:00 - - - - - - - -
21.08.2019 05:00:00 23,9 22,1 13 7 N 1017,0 - 0
21.08.2019 04:00:00 - - - - - - - -
21.08.2019 03:00:00 - - - - - - - -
21.08.2019 02:00:00 23,5 18,5 5 3 N 1017,2 - 0
21.08.2019 01:00:00 - - - - - - - -
21.08.2019 00:00:00 - - - - - - - -
20.08.2019 23:00:00 24,9 17,9 4 2 - 1017,7 - 0
20.08.2019 22:00:00 - - - - - - - -
20.08.2019 21:00:00 - - - - - - - -
20.08.2019 20:00:00 26,0 22,5 11 6 NW 1017,0 20 60
20.08.2019 19:00:00 - - - - - - - -
20.08.2019 18:00:00 - - - - - - - -
20.08.2019 17:00:00 27,4 22,1 15 8 NW 1017,1 20 60
20.08.2019 16:00:00 - - - - - - - -
20.08.2019 15:00:00 - - - - - - - -
20.08.2019 14:00:00 27,1 22,5 16 9 NW 1017,9 20 60
20.08.2019 13:00:00 - - - - - - - -
20.08.2019 12:00:00 - - - - - - - -
20.08.2019 11:00:00 26,2 18,6 15 8 NW 1017,9 20 60
20.08.2019 10:00:00 - - - - - - - -
20.08.2019 09:00:00 - - - - - - - -
20.08.2019 08:00:00 23,8 13,6 2 1 WNW 1017,2 20 54
20.08.2019 07:00:00 - - - - - - - -
20.08.2019 06:00:00 - - - - - - - -
20.08.2019 05:00:00 22,8 13,2 4 2 N 1017,0 - 0
20.08.2019 04:00:00 - - - - - - - -
20.08.2019 03:00:00 - - - - - - - -
20.08.2019 02:00:00 24,0 17,7 4 2 N 1017,5 - 0
20.08.2019 01:00:00 - - - - - - - -
20.08.2019 00:00:00 - - - - - - - -
19.08.2019 23:00:00 24,2 21,2 18 10 NNW 1017,9 - 0
19.08.2019 22:00:00 - - - - - - - -
19.08.2019 21:00:00 - - - - - - - -
19.08.2019 20:00:00 25,6 21,6 21 11 NW 1017,0 20 60
19.08.2019 19:00:00 - - - - - - - -
19.08.2019 18:00:00 - - - - - - - -
19.08.2019 17:00:00 26,7 21,7 18 10 NW 1017,2 20 60
19.08.2019 16:00:00 - - - - - - - -
19.08.2019 15:00:00 - - - - - - - -
19.08.2019 14:00:00 26,5 21,5 18 10 NW 1017,9 20 60
19.08.2019 13:00:00 - - - - - - - -
19.08.2019 12:00:00 - - - - - - - -
19.08.2019 11:00:00 25,0 21,0 9 5 WNW 1017,6 20 60
19.08.2019 10:00:00 - - - - - - - -
19.08.2019 09:00:00 - - - - - - - -
19.08.2019 08:00:00 23,4 17,8 4 2 - 1016,7 20 60
19.08.2019 07:00:00 - - - - - - - -
19.08.2019 06:00:00 - - - - - - - -
19.08.2019 05:00:00 22,3 20,2 11 6 - 1016,3 - 0
19.08.2019 04:00:00 - - - - - - - -
19.08.2019 03:00:00 - - - - - - - -
19.08.2019 02:00:00 22,9 20,1 9 5 NNE 1016,5 - 0
19.08.2019 01:00:00 - - - - - - - -
19.08.2019 00:00:00 - - - - - - - -
18.08.2019 23:00:00 23,3 19,7 4 2 N 1016,7 - 0
18.08.2019 22:00:00 - - - - - - - -
18.08.2019 21:00:00 - - - - - - - -
18.08.2019 20:00:00 25,6 21,9 11 6 NW 1015,7 - 60
18.08.2019 19:00:00 - - - - - - - -
18.08.2019 18:00:00 - - - - - - - -
18.08.2019 17:00:00 25,5 21,9 11 6 W 1016,6 - 60
18.08.2019 16:00:00 - - - - - - - -
18.08.2019 15:00:00 - - - - - - - -
18.08.2019 14:00:00 25,2 21,6 9 5 W 1017,2 - 60
18.08.2019 13:00:00 - - - - - - - -
18.08.2019 12:00:00 - - - - - - - -
18.08.2019 11:00:00 25,0 21,1 9 5 S 1017,3 - 60
18.08.2019 10:00:00 - - - - - - - -
18.08.2019 09:00:00 - - - - - - - -
18.08.2019 08:00:00 23,2 17,8 8 4 ESE 1016,7 - 60
18.08.2019 07:00:00 - - - - - - - -

tt = temperature
td = dewpoint
ff = wind speed
dd = wind direction
ppp = reduced air pressure
vv = visibility
sd = sunshine duration

Next stations